Find Starlink 11191

NORAD ID: 60410 Int'l Des: 2024-141 Owner: SPXS Country: US Constellation: starlink operational
LEOCIRCULAR

現在のビュー

3D地球を読み込み中...

Starlink 11191について

説明を読み込み中...

次回通過

Passes for default location (London). Set your location on the main map for personalized predictions.

高度履歴

Loading altitude history...

軌道要素

1 60410U 24141N 26158.84172487 -.00000943 00000-0 -29253-5 0 9990
2 60410 53.1592 1.7425 0000828 75.5217 284.5892 15.69713535105900
Epoch: Jun 7, 2026 • Age: 5 hours

現在のステータス

高度 359.9 km
速度 7.70 km/s
衛星直下点 10.12°N, 105.87°W
打ち上げ日 Aug 10, 2024
運用期間 1.8 years
タイプ internet

技術仕様

分類 Payload
質量 960.00 kg
乾燥質量 910.00 kg
総質量 960.00 kg
長さ 0.30 m
直径 4.10 m
スパン 29.00 m
形状 Box + pan
製造者 SPXS
バスタイプ Starlink V2MD
フェーズステータス In Orbit
所有者/国 SPXS/US

Most Searched